Tracking 30107 objects as of 25-Jan-2025
HD Live streaming from Space Station
objects crossing your sky now

FENGYUN 1D

Track FENGYUN 1D now!
10-day predictions
FENGYUN 1D is classified as:


NORAD ID: 27431
Int'l Code: 2002-024B
Perigee: 855.5 km
Apogee: 876.9 km
Inclination: 99.0 °
Period: 102.1 minutes
Semi major axis: 7237 km
RCS: 2.2279 m2 (large)
Launch date: May 15, 2002
Source: People's Republic of China (PRC)
Launch site: Taiyaun Space Center, China (TSC)

Polar-orbiting satellite; carries Multichannel Visible and Infrared Scan Radiometer (MVISR); means "wind and cloud."
Your satellite tracking list
Your tracking list is empty




NASA's NSSDC Master Catalog

Two Line Element Set (TLE):
1 27431U 02024B   25025.55282562  .00000240  00000-0  16125-3 0  9998
2 27431  99.0269  71.2004 0014776 227.1050 132.8881 14.10100135167933
Source of the keplerian elements: AFSPC